User: anonymous   Login
Location: Unspecified
(0.0000°N, 0.0000°E)
Time: 04:15:01
(UTC+00:00)
Language:

ONEWEB-0249 - Orbit

View from above orbital plane
View from above orbital plane
View from above satellite
View from above satellite

Ground track
Ground track

The orbit is defined by the following mean orbital elements,

1 48967U          26145.25380984 +.00000000 +00000-0 +12115-3 0 00007
2 48967  87.9107 233.3312 0001922 102.8005 257.3341 13.16594355    02
Epoch (UTC): 25 May 2026 06:05:29
Eccentricity: 0.0001922
inclination: 87.9107°
perigee height: 1196 km
apogee height: 1199 km
right ascension of ascending node: 233.3312°
argument of perigee: 102.8005°
revolutions per day: 13.16594355
mean anomaly at epoch: 257.3341°

The dashed part of the orbit path shows where the satellite is in the earth's shadow,  

DLR